Location: Pasadena, ca
(34.1243°N, 118.1037°W)
Time: 05:58:56
(UTC-08:00)

Tiangong 2 - Pass Details

Date: 10 November 2017
Orbit: 386 x 391 km, 42.8° (Epoch: 18 November)

Event Time Altitude Azimuth Distance (km) Brightness Sun altitude
Rises 18:40:41 0° 299° (WNW) 2,271 5.8 -22.7°
Reaches altitude 10° 18:42:46 10° 300° (WNW) 1,414 4.6 -23.2°
Enters shadow 18:44:32 30° 304° (NW) 724 2.8 -23.5°
